Location: Kawakawa
(35.3830°S, 174.0670°E)
Time: 10:18:23
(UTC+13:00)

Explorer 7 - Pass Details

Date: 17 December 2019
Orbit: 485 x 679 km, 50.3° (Epoch: 26 January)

Event Time Altitude Azimuth Distance (km) Brightness Sun altitude
Rises 03:25:23 0° 283° (WNW) 2,681 - -24.1°
Reaches altitude 10° 03:27:53 10° 271° (W) 1,765 - -23.9°
Exits shadow 03:30:44 26° 227° (SW) 1,029 8.2 -23.6°
Maximum altitude 03:31:20 28° 211° (SSW) 994 8.3 -23.5°
Drops below altitude 10° 03:34:42 10° 150° (SSE) 1,714 10.4 -23.1°
Sets 03:37:06 0° 137° (SE) 2,588 11.7 -22.8°
